�N����,����,�~����,�C��,���x,�C��,����,���ϕ���,�ő�u�ԕ���,�ő厞����,���˗�,�I�_���x,�n�����x,�ő啗���N��,DTYPE
"20/04/09","00:10",0.0,11.2,65.1,1013.5,317.0,2.2,6.7,342.8,0.00,4.9,13.4,"00:04:18",1
"20/04/09","00:20",0.0,10.9,65.1,1014.0,298.4,2.1,3.5,315.1,0.00,4.6,13.4,"00:15:54",1
"20/04/09","00:30",0.0,10.5,65.7,1013.8,305.7,1.3,2.5,330.7,0.00,4.4,13.2,"00:26:40",1
"20/04/09","00:40",0.0,10.5,66.4,1013.8,330.6,2.1,4.5,41.8,0.00,4.5,13.2,"00:38:18",1
"20/04/09","00:50",0.0,10.4,66.0,1013.8,314.7,2.2,4.2,334.8,0.00,4.4,13.2,"00:44:02",1
"20/04/09","01:00",0.0,10.5,65.4,1013.5,325.6,2.6,5.5,333.5,0.00,4.3,13.2,"00:56:24",1
"20/04/09","01:10",0.0,10.4,65.2,1013.3,299.7,2.1,4.3,331.2,0.00,4.2,13.0,"01:06:16",1
"20/04/09","01:20",0.0,10.3,65.4,1013.3,319.0,2.1,5.8,333.9,0.00,4.1,13.0,"01:14:16",1
"20/04/09","01:30",0.0,10.1,66.0,1013.3,303.6,2.1,3.9,342.3,0.00,4.1,12.9,"01:25:36",1
"20/04/09","01:40",0.0,10.0,66.2,1013.5,283.7,2.5,4.5,282.2,0.00,4.0,12.7,"01:38:48",1
"20/04/09","01:50",0.0,10.2,65.7,1013.3,308.2,2.7,5.2,315.4,0.00,4.1,12.7,"01:42:48",1
"20/04/09","02:00",0.0,9.9,65.8,1013.8,333.0,1.8,4.1,328.5,0.00,3.8,12.8,"01:53:04",1
"20/04/09","02:10",0.0,9.2,67.3,1013.5,316.9,1.1,2.4,334.3,0.00,3.5,12.7,"02:09:44",1
"20/04/09","02:20",0.0,8.4,69.6,1013.3,301.4,1.6,2.7,320.5,0.00,3.2,12.5,"02:14:24",1
"20/04/09","02:30",0.0,8.6,71.2,1013.0,339.1,1.5,3.1,316.1,0.00,3.7,12.5,"02:22:16",1
"20/04/09","02:40",0.0,8.4,72.2,1013.3,333.8,1.6,3.2,342.9,0.00,3.7,12.5,"02:30:32",1
"20/04/09","02:50",0.0,7.9,73.5,1013.3,331.8,1.6,2.7,325.7,0.00,3.5,12.4,"02:43:28",1
"20/04/09","03:00",0.0,7.2,74.5,1013.5,314.7,1.8,2.6,325.7,0.00,3.0,12.2,"02:51:52",1
"20/04/09","03:10",0.0,6.9,75.6,1013.3,308.5,2.0,2.6,313.5,0.00,2.9,12.2,"03:06:24",1
"20/04/09","03:20",0.0,6.9,77.0,1013.5,323.1,1.7,2.2,319.6,0.00,3.2,12.2,"03:14:16",1
"20/04/09","03:30",0.0,6.8,78.1,1013.0,324.3,1.7,2.6,330.0,0.00,3.3,12.0,"03:20:32",1
"20/04/09","03:40",0.0,6.3,79.2,1013.3,305.6,1.2,1.9,314.4,0.00,3.0,11.9,"03:34:32",1
"20/04/09","03:50",0.0,7.1,80.8,1013.0,330.6,1.0,2.7,338.8,0.00,4.1,11.8,"03:44:28",1
"20/04/09","04:00",0.0,7.7,81.0,1013.0,339.3,1.7,5.2,338.8,0.00,4.7,11.8,"03:54:16",1
"20/04/09","04:10",0.0,7.3,81.0,1013.0,325.7,1.8,3.1,318.1,0.00,4.3,11.7,"04:02:40",1
"20/04/09","04:20",0.0,7.2,81.3,1012.8,324.6,2.1,3.4,322.4,0.00,4.3,11.8,"04:12:32",1
"20/04/09","04:30",0.0,7.2,81.5,1013.3,334.2,1.7,2.7,4.5,0.00,4.3,11.7,"04:28:24",1
"20/04/09","04:40",0.0,7.9,80.5,1013.0,358.6,1.7,2.8,12.4,0.00,4.8,11.6,"04:30:16",1
"20/04/09","04:50",0.0,8.0,78.8,1013.0,343.3,2.1,3.9,345.1,0.00,4.6,11.6,"04:40:48",1
"20/04/09","05:00",0.0,8.2,77.4,1013.3,337.2,2.1,3.9,326.5,0.00,4.5,11.6,"04:58:16",1
"20/04/09","05:10",0.0,8.0,76.4,1013.3,333.6,2.5,5.0,301.5,0.00,4.1,11.6,"05:00:56",1
"20/04/09","05:20",0.0,8.2,75.0,1013.5,338.8,2.5,7.4,335.8,0.00,4.1,11.6,"05:10:58",1
"20/04/09","05:30",0.0,7.1,75.1,1013.5,323.5,1.7,2.7,329.8,0.00,3.0,11.4,"05:26:32",1
"20/04/09","05:40",0.0,6.4,76.4,1013.8,323.0,1.6,2.6,321.6,0.00,2.6,11.5,"05:32:56",1
"20/04/09","05:50",0.0,5.8,77.6,1013.8,298.7,1.6,2.2,317.2,0.00,2.2,11.2,"05:48:46",1
"20/04/09","06:00",0.0,5.2,78.8,1013.5,299.5,1.2,1.6,293.0,0.00,1.9,11.2,"05:51:32",1
"20/04/09","06:10",0.0,5.2,80.0,1013.5,300.0,1.7,1.9,301.5,0.00,2.1,11.2,"06:04:50",1
"20/04/09","06:20",0.0,5.0,81.4,1013.5,305.2,1.6,2.2,319.3,0.00,2.1,10.9,"06:19:44",1
"20/04/09","06:30",0.0,5.1,82.6,1013.3,314.9,2.0,2.6,312.8,0.00,2.4,11.0,"06:20:52",1
"20/04/09","06:40",0.0,5.2,83.8,1013.8,312.2,1.8,2.1,324.3,0.00,2.7,11.1,"06:30:20",1
"20/04/09","06:50",0.0,5.4,84.7,1013.3,301.5,2.2,2.6,313.1,0.00,3.1,11.0,"06:48:32",1
"20/04/09","07:00",0.0,5.9,85.3,1013.8,312.5,2.3,3.4,328.9,0.01,3.7,10.9,"06:55:56",1
"20/04/09","07:10",0.0,6.6,85.6,1014.0,296.1,1.6,2.5,308.7,0.02,4.4,11.1,"07:00:02",1
"20/04/09","07:20",0.0,7.2,85.6,1014.0,315.9,2.5,3.3,328.3,0.03,5.0,10.8,"07:17:52",1
"20/04/09","07:30",0.0,7.7,85.0,1014.2,324.4,3.1,4.2,318.9,0.05,5.4,10.9,"07:25:20",1
"20/04/09","07:40",0.0,8.4,83.9,1014.5,315.7,3.1,4.1,323.1,0.06,5.9,11.1,"07:32:24",1
"20/04/09","07:50",0.0,8.8,82.1,1014.7,315.9,3.4,4.8,327.2,0.09,6.0,11.0,"07:48:24",1
"20/04/09","08:00",0.0,9.4,80.1,1014.9,310.0,3.0,4.5,330.9,0.11,6.2,11.3,"07:50:16",1
"20/04/09","08:10",0.0,9.7,77.8,1014.9,312.7,2.8,4.8,337.5,0.14,6.1,11.2,"08:05:44",1
"20/04/09","08:20",0.0,10.4,75.4,1015.2,303.5,2.2,3.9,322.0,0.16,6.3,11.2,"08:13:52",1
"20/04/09","08:30",0.0,10.9,72.7,1015.2,300.3,2.0,3.1,316.5,0.19,6.2,11.5,"08:25:12",1
"20/04/09","08:40",0.0,11.7,69.2,1014.9,315.6,1.2,3.5,324.6,0.22,6.3,11.7,"08:30:32",1
"20/04/09","08:50",0.0,12.3,65.8,1014.9,332.4,0.8,2.4,338.2,0.25,6.1,11.8,"08:45:04",1
"20/04/09","09:00",0.0,12.4,64.0,1014.9,217.6,0.8,2.0,117.2,0.28,5.8,11.9,"08:51:20",1
"20/04/09","09:10",0.0,13.0,60.9,1015.2,291.8,1.1,3.5,341.3,0.30,5.7,12.0,"09:02:48",1
"20/04/09","09:20",0.0,13.0,60.3,1015.4,144.5,1.1,2.5,140.8,0.33,5.5,12.2,"09:11:36",1
"20/04/09","09:30",0.0,13.1,60.2,1014.9,163.2,1.3,2.5,127.7,0.36,5.6,12.3,"09:21:44",1
"20/04/09","09:40",0.0,13.2,60.5,1014.9,199.0,1.2,2.8,198.6,0.38,5.8,12.4,"09:33:12",1
"20/04/09","09:50",0.0,13.8,58.1,1014.9,337.0,0.7,3.4,350.6,0.40,5.8,12.7,"09:44:08",1
"20/04/09","10:00",0.0,13.7,56.2,1014.7,232.6,1.0,2.6,91.0,0.43,5.2,13.0,"09:57:52",1
"20/04/09","10:10",0.0,14.1,56.8,1014.9,175.2,0.7,2.2,137.5,0.45,5.7,13.2,"10:06:08",1
"20/04/09","10:20",0.0,14.6,54.4,1014.9,357.0,0.8,2.7,357.6,0.47,5.6,13.6,"10:11:04",1
"20/04/09","10:30",0.0,14.6,54.9,1014.2,285.6,1.5,3.6,346.3,0.46,5.7,13.4,"10:21:36",1
"20/04/09","10:40",0.0,14.5,56.5,1014.5,226.5,2.1,4.0,216.0,0.51,6.0,13.8,"10:32:56",1
"20/04/09","10:50",0.0,14.8,53.4,1014.5,244.0,1.6,3.7,233.5,0.52,5.5,14.1,"10:47:36",1
"20/04/09","11:00",0.0,14.6,54.1,1014.0,220.6,1.8,4.2,231.0,0.54,5.5,14.2,"10:50:40",1
"20/04/09","11:10",0.0,15.3,53.2,1014.0,279.4,1.6,3.5,329.5,0.55,5.9,14.5,"11:08:24",1
"20/04/09","11:20",0.0,15.3,52.0,1014.0,299.8,2.2,4.0,320.5,0.55,5.6,14.6,"11:19:44",1
"20/04/09","11:30",0.0,15.5,51.7,1013.5,283.0,2.1,5.7,313.7,0.57,5.7,14.9,"11:24:16",1
"20/04/09","11:40",0.0,15.5,50.6,1013.8,234.1,2.5,4.9,204.0,0.58,5.3,15.1,"11:38:00",1
"20/04/09","11:50",0.0,16.1,46.9,1013.3,252.1,2.1,4.2,285.0,0.59,4.8,15.4,"11:41:20",1
"20/04/09","12:00",0.0,16.2,37.0,1013.0,247.4,2.1,4.7,235.7,0.60,1.5,15.4,"11:56:08",1
"20/04/09","12:10",0.0,16.5,36.3,1013.0,230.8,2.7,4.7,235.6,0.61,1.5,15.8,"12:03:20",1
"20/04/09","12:20",0.0,16.8,31.8,1013.0,264.1,2.5,5.2,305.3,0.61,0.0,16.0,"12:16:24",1
"20/04/09","12:30",0.0,16.4,31.2,1012.8,269.1,3.2,6.7,328.2,0.61,-0.6,16.1,"12:20:02",1
"20/04/09","12:40",0.0,16.3,33.6,1012.6,315.1,3.5,7.7,329.4,0.61,0.3,16.2,"12:35:20",1
"20/04/09","12:50",0.0,16.1,36.8,1012.3,314.9,4.0,7.5,334.9,0.61,1.4,16.3,"12:42:16",1
"20/04/09","13:00",0.0,17.1,37.6,1012.3,293.8,2.5,4.4,333.7,0.61,2.6,16.3,"12:58:08",1
"20/04/09","13:10",0.0,17.4,38.7,1012.6,285.4,2.5,4.9,229.7,0.58,3.2,16.6,"13:04:40",1
"20/04/09","13:20",0.0,17.0,38.9,1012.1,322.1,2.1,4.9,338.9,0.47,3.0,16.5,"13:12:24",1
"20/04/09","13:30",0.0,17.5,39.8,1011.9,328.6,1.7,3.5,262.1,0.41,3.7,16.8,"13:27:52",1
"20/04/09","13:40",0.0,16.6,40.4,1011.9,297.2,2.3,5.0,339.5,0.29,3.1,16.9,"13:30:02",1
"20/04/09","13:50",0.0,17.5,39.1,1011.6,298.5,2.5,5.8,347.7,0.61,3.5,17.1,"13:40:08",1
"20/04/09","14:00",0.0,18.0,38.0,1011.9,290.3,1.8,5.0,346.0,0.60,3.5,16.9,"13:56:56",1
"20/04/09","14:10",0.0,18.3,37.9,1011.6,300.8,2.0,6.7,321.3,0.63,3.8,17.2,"14:07:44",1
"20/04/09","14:20",0.0,18.7,37.7,1011.4,323.5,2.1,4.2,337.5,0.59,4.0,17.3,"14:16:00",1
"20/04/09","14:30",0.0,17.8,38.7,1011.2,301.5,2.2,4.0,334.1,0.38,3.6,17.4,"14:22:40",1
"20/04/09","14:40",0.0,17.4,37.8,1011.4,301.4,2.3,4.7,342.5,0.33,2.9,17.4,"14:37:04",1
"20/04/09","14:50",0.0,17.9,37.5,1010.7,329.4,2.6,5.5,345.0,0.47,3.2,17.4,"14:49:52",1
"20/04/09","15:00",0.0,18.4,37.4,1010.9,305.5,2.7,5.6,336.3,0.51,3.7,17.5,"14:50:16",1
"20/04/09","15:10",0.0,18.9,37.0,1010.4,291.6,1.8,3.7,329.2,0.50,3.9,17.7,"15:04:08",1
"20/04/09","15:20",0.0,19.1,35.9,1010.4,319.3,2.1,5.0,342.6,0.49,3.7,17.6,"15:13:44",1
"20/04/09","15:30",0.0,19.5,35.2,1010.4,16.5,1.1,3.2,106.4,0.51,3.8,17.5,"15:22:24",1
"20/04/09","15:40",0.0,19.3,35.9,1010.7,293.2,2.2,5.2,331.3,0.48,3.9,17.7,"15:37:20",1
"20/04/09","15:50",0.0,18.0,35.8,1010.0,155.2,2.3,4.2,114.9,0.26,2.7,17.6,"15:48:16",1
"20/04/09","16:00",0.0,17.3,36.1,1010.2,242.6,1.7,3.5,358.8,0.09,2.2,17.7,"15:57:36",1
"20/04/09","16:10",0.0,17.0,35.2,1010.4,0.8,1.7,3.5,54.8,0.09,1.6,17.5,"16:08:56",1
"20/04/09","16:20",0.0,17.6,39.5,1010.4,88.9,0.7,2.0,119.4,0.16,3.7,17.7,"16:10:02",1
"20/04/09","16:30",0.0,17.9,36.8,1010.4,3.6,1.2,2.6,97.8,0.16,3.0,17.4,"16:27:04",1
"20/04/09","16:40",0.0,17.9,38.8,1010.4,347.3,2.8,6.2,327.3,0.25,3.7,17.2,"16:39:36",1
"20/04/09","16:50",0.0,17.5,40.4,1010.4,339.0,3.6,6.6,338.0,0.28,3.9,17.2,"16:48:00",1
"20/04/09","17:00",0.0,17.3,41.4,1010.7,339.4,3.9,7.0,329.0,0.25,4.1,17.2,"16:56:40",1
"20/04/09","17:10",0.0,17.2,40.7,1010.9,341.9,3.2,5.6,356.8,0.20,3.8,17.0,"17:02:48",1
"20/04/09","17:20",0.0,16.5,41.1,1010.9,344.9,3.7,7.7,336.9,0.17,3.3,16.9,"17:15:52",1
"20/04/09","17:30",0.0,15.8,41.9,1010.9,342.5,4.0,7.2,350.1,0.14,2.9,16.8,"17:28:24",1
"20/04/09","17:40",0.0,14.9,42.9,1011.4,339.0,5.2,10.2,342.4,0.10,2.5,16.7,"17:30:56",1
"20/04/09","17:50",0.0,14.4,43.5,1011.6,341.2,5.1,11.3,343.5,0.08,2.2,16.6,"17:43:28",1
"20/04/09","18:00",0.0,14.0,44.4,1011.9,340.7,5.4,8.1,349.9,0.05,2.1,16.5,"17:53:30",1
"20/04/09","18:10",0.0,13.7,44.6,1012.1,340.6,4.5,7.5,328.6,0.04,1.9,16.4,"18:08:08",1
"20/04/09","18:20",0.0,13.3,45.7,1012.6,343.0,4.2,7.8,340.6,0.02,1.9,16.1,"18:16:22",1
"20/04/09","18:30",0.0,12.9,46.7,1012.6,337.8,3.7,6.5,346.6,0.01,1.8,16.2,"18:23:48",1
"20/04/09","18:40",0.0,12.6,48.1,1012.6,333.2,3.4,6.2,330.3,0.00,2.0,16.0,"18:33:16",1
"20/04/09","18:50",0.0,12.4,45.5,1012.6,335.7,4.1,10.0,344.9,0.00,1.0,15.7,"18:47:14",1
"20/04/09","19:00",0.0,12.1,43.8,1013.0,333.9,4.2,7.0,346.7,0.00,0.2,15.5,"18:52:58",1
"20/04/09","19:10",0.0,11.9,41.3,1012.8,333.7,4.6,7.3,322.8,0.00,-0.8,15.4,"19:08:52",1
"20/04/09","19:20",0.0,11.8,39.7,1013.0,324.0,5.0,8.1,342.9,0.00,-1.4,15.2,"19:14:24",1
"20/04/09","19:30",0.0,11.5,40.2,1013.3,318.3,3.9,6.6,331.8,0.00,-1.5,15.0,"19:27:48",1
"20/04/09","19:40",0.0,11.3,41.5,1013.3,322.1,3.9,6.6,345.6,0.00,-1.3,14.9,"19:37:10",1
"20/04/09","19:50",0.0,11.2,43.6,1013.5,330.9,4.1,6.7,339.6,0.00,-0.7,14.8,"19:48:08",1
"20/04/09","20:00",0.0,11.0,44.4,1013.5,339.5,3.1,5.9,340.1,0.00,-0.6,14.7,"19:59:18",1
"20/04/09","20:10",0.0,10.9,44.6,1013.8,337.8,4.1,7.9,338.8,0.00,-0.6,14.7,"20:01:46",1
"20/04/09","20:20",0.0,10.8,45.4,1013.8,345.9,3.4,7.9,337.7,0.00,-0.5,14.3,"20:11:04",1
"20/04/09","20:30",0.0,10.6,45.8,1014.0,342.6,3.0,6.6,339.5,0.00,-0.6,14.4,"20:22:20",1
"20/04/09","20:40",0.0,10.5,46.6,1014.2,330.7,3.6,6.3,351.1,0.00,-0.4,14.2,"20:37:48",1
"20/04/09","20:50",0.0,10.3,47.7,1014.0,333.6,3.2,6.0,344.4,0.00,-0.3,14.1,"20:46:58",1
"20/04/09","21:00",0.0,10.2,47.7,1014.5,329.9,2.3,5.1,339.0,0.00,-0.4,13.9,"20:53:14",1
"20/04/09","21:10",0.0,10.5,44.8,1014.7,326.5,2.0,3.5,335.0,0.00,-0.9,14.1,"21:02:42",1
"20/04/09","21:20",0.0,10.6,43.9,1014.7,311.9,1.6,5.6,311.1,0.00,-1.1,13.9,"21:13:38",1
"20/04/09","21:30",0.0,10.6,43.5,1014.7,303.8,1.3,3.9,234.2,0.00,-1.3,13.8,"21:25:10",1
"20/04/09","21:40",0.0,10.9,41.3,1014.7,328.2,1.7,4.0,102.3,0.00,-1.7,13.6,"21:33:00",1
"20/04/09","21:50",0.0,10.6,45.4,1014.9,321.2,1.2,2.8,299.0,0.00,-0.7,13.4,"21:46:16",1
"20/04/09","22:00",0.0,10.4,46.1,1014.9,285.7,1.2,3.2,232.8,0.00,-0.6,13.2,"21:57:30",1
"20/04/09","22:10",0.0,10.5,45.9,1015.2,309.6,1.7,3.1,341.8,0.00,-0.6,13.5,"22:01:44",1
"20/04/09","22:20",0.0,10.4,46.8,1014.9,285.2,2.5,4.3,256.5,0.00,-0.4,13.3,"22:19:12",1
"20/04/09","22:30",0.0,10.2,48.1,1015.2,292.8,1.8,3.3,309.2,0.00,-0.2,13.2,"22:24:24",1
"20/04/09","22:40",0.0,10.0,49.9,1015.4,282.9,2.0,3.2,237.9,0.00,0.1,13.0,"22:36:24",1
"20/04/09","22:50",0.0,10.1,51.8,1015.6,311.4,2.8,7.7,320.4,0.00,0.7,13.2,"22:43:04",1
"20/04/09","23:00",0.0,9.8,52.0,1015.2,277.1,1.3,2.5,264.5,0.00,0.5,13.2,"22:54:00",1
"20/04/09","23:10",0.0,9.8,52.8,1015.2,310.0,1.7,3.6,312.0,0.00,0.7,13.0,"23:02:08",1
"20/04/09","23:20",0.0,9.8,54.6,1015.6,317.6,2.1,4.9,349.6,0.00,1.1,13.1,"23:19:04",1
"20/04/09","23:30",0.0,9.7,56.3,1015.4,308.8,1.7,2.7,329.8,0.00,1.5,13.0,"23:21:20",1
"20/04/09","23:40",0.0,9.8,57.0,1015.2,331.5,2.1,3.4,341.5,0.00,1.7,12.9,"23:33:20",1
"20/04/09","23:50",0.0,9.8,57.8,1015.2,312.2,2.0,3.7,336.9,0.00,1.9,13.0,"23:45:36",1
"20/04/09","24:00",0.0,9.6,58.8,1015.4,297.1,2.0,3.4,267.5,0.00,2.0,12.9,"23:58:32",1
